STARLINK-11319, 61251

Orbit data source: Space-Track

STARLINK-11319, 61251 is a payload satellite owned by SpaceX/Seattle (US) in LEO that was launched on Wed, 25 Sep 2024 UTC via an FALCON 9 launch vehicle from the Air Force Western Test Range (AFWTR). Payload-class satellites include a variety of spacecraft equipped with specific instruments for various scientific and technological missions. These include communications satellites like Starlink; space stations such as the ISS; scientific satellites like the Hubble; Earth observation satellites from companies like Planet Labs, Umbra, and HawkEye 360; GPS; miniature CubeSats for education and research; and military/defense satellites.

Loading next visibility...
Identifier
61251, 2024-175J
Orbit
LEO
Country
Flag of USUS
Related business
Manufacturer
SpaceX/Seattle
Mission
Operational Commercial Communications
Bus & Motor
STARLINK V2MD, Unknown motor
Mass
960 kg wet, ~910 kg dry
Launch date (UTC)
2024-09-25 (1 year ago)
Launch vehicle
FALCON 9
Launch site
Air Force Western Test Range (AFWTR)
Object type
Payload
Rocket body
Debris
Shape & HBR
Box + 2 Pan, 18.1 m
Radar Cross Section
36.964 m², Large (>1 m²)

Expand to show TLE details & history
Last TLE update: 4 hours ago

TLE from 4 hours ago
0 STARLINK-11319
1 61251U 24175J   25291.33361316  .00000869  00000-0  12033-4 0  9995
2 61251  53.1597  38.3382 0000995 114.4810 245.6311 15.69708714 61003
Epoch: 2025-10-18T08:00Z
TLE epoch observation values (Epoch: 2025-10-18T08:00:24.177Z)
Latitude
-0.00006°
Longitude
-108.82871°
Altitude
360.922 km
Speed
7.694 km/s
True Right ascension
02h 33m 21s
True Declination
0° 00' 00"
Sunlit
Object was in full shadow at epoch
Visualization orbit readout
Latitude
Unknown
Longitude
Unknown
Altitude
Unknown
Speed
Unknown
Apparent Right ascension
Unknown
Apparent Declination
Unknown
Sunlit
N/A
Visualization observer readout
Local Sidereal Time
07:05:32
Azimuth
Unknown
Elevation
Unknown
Doppler factor
Unknown
Orbital elements
Apogee altitude
360.662 km
Perigee altitude
359.321 km
Semi-major axis
6,738.128 km
Eccentricity
0.0001
Inclination
53.1597°
RAAN
38.3382°
Arg. of periapsis
114.481°
True anomaly
245.62071°
Mean anomaly
245.6311°
Eccentric anomaly
245.62591°
Mean motion
3.92405 °/min
Orbital period
91.74 mins
BSTAR
0.000012033
Loading maneuver chart data...
Computing Atmospheric mass density...
Loading historical data...
Loading historical data...
Loading historical data...
Loading historical data...
Loading historical data...
Loading historical data...
Loading historical data...

Documentation

Showing up to 5 results
|